Markham, Ontario

3:18 AM EDT on September 27, 2016 (GMT -0400)
Toronto-Buttonville Municipal

Weather History for CYKZ - November, 2011

Change the Weather History Date:

Friday, November 25, 2011

  Actual Average Record
Temperature  
Mean Temperature 51 °F -  
Max Temperature 60 °F 39 °F 59 °F (2001)
Min Temperature 42 °F 27 °F 8 °F (2005)
Degree Days  
Heating Degree Days 14    
Growing Degree Days 1 (Base 50)    
Moisture  
Dew Point 38 °F    
Average Humidity 65    
Maximum Humidity 81    
Minimum Humidity 40    
Precipitation  
Precipitation 0.00 in - - ()
Sea Level Pressure  
Sea Level Pressure 30.00 in    
Wind  
Wind Speed 9 mph ()    
Max Wind Speed 13 mph    
Max Gust Speed 20 mph    
Visibility 13.1 miles    
Events      
Averages and records for this station are not official NWS values.
T = Trace of Precipitation, MM = Missing Value Source: Averaged Metar Reports

Daily Weather History Graph

Daily Weather History Graph

Search for Another Location

Airport or City:

Trip Planner

Search our weather history database for the weather conditions in past years. The results will help you decide how hot, cold, wet, or windy it might be!

Date:

Astronomy

Nov. 25, 2011 Rise Set
Actual Time 7:24 AM EST 4:44 PM EST
Civil Twilight 6:52 AM EST 5:15 PM EST
Nautical Twilight 6:17 AM EST 5:51 PM EST
Astronomical Twilight 5:42 AM EST 6:25 PM EST
Moon 7:52 AM EST (11/25) 5:07 PM EST (11/25)
Length of Visible Light 10h 23m
Length of Day
9h 19m
New Moon, 0% of the Moon is Illuminated
Nov 25
New Moon
Dec 2
First Quarter
Dec 10
Full
Dec 17
Last Quarter
Dec 24
New

Hourly Weather History & Observations

Time (EST) Temp. Windchill Dew Point Humidity Pressure Visibility Wind Dir Wind Speed Gust Speed Precip Events Conditions
12:00 AM 42.8 °F 37.5 °F 35.6 °F 76% 30.07 in 10.0 mi WSW 9.2 mph - N/A   Overcast
1:00 AM 43 °F - 37 °F 72% 30.05 in 10 mi WSW 9.2 mph - -   Overcast
1:00 AM 42.8 °F 37.5 °F 37.4 °F 81% 30.05 in 10.0 mi WSW 9.2 mph - N/A   Overcast
2:00 AM 42.8 °F 37.0 °F 37.4 °F 81% 30.04 in 10.0 mi SW 10.4 mph - N/A   Overcast
4:00 AM 42.8 °F 39.3 °F 37.4 °F 81% 30.04 in 10.0 mi SW 5.8 mph - N/A   Partly Cloudy
6:00 AM 42.8 °F 37.5 °F 37.4 °F 81% 30.04 in 12.0 mi SW 9.2 mph - N/A   Partly Cloudy
7:00 AM 42.8 °F 37.0 °F 37.4 °F 81% 30.04 in 12.0 mi SW 10.4 mph - N/A   Scattered Clouds
8:00 AM 42.8 °F 37.5 °F 37.4 °F 81% 30.03 in 10.0 mi SSW 9.2 mph - N/A   Mostly Cloudy
9:00 AM 44.6 °F 40.2 °F 37.4 °F 76% 30.04 in 12.0 mi SW 8.1 mph - N/A   Mostly Cloudy
10:00 AM 46.4 °F 41.1 °F 37.4 °F 71% 30.03 in 12.0 mi SW 11.5 mph - N/A   Mostly Cloudy
11:00 AM 50.0 °F - 37.4 °F 62% 30.01 in 15.0 mi SW 10.4 mph - N/A   Mostly Cloudy
12:00 PM 53.6 °F - 37.4 °F 54% 29.99 in 15.0 mi SW 11.5 mph 19.6 mph N/A   Mostly Cloudy
1:00 PM 56 °F - 38 °F 40% 29.96 in 15 mi SSW 6.9 mph - -   Clear
2:00 PM 59.0 °F - 39.2 °F 48% 29.94 in 15.0 mi SSW 9.2 mph 17.3 mph N/A   Partly Cloudy
3:00 PM 59.0 °F - 39.2 °F 48% 29.93 in 15.0 mi SSW 12.7 mph - N/A   Mostly Cloudy
5:00 PM 55.4 °F - 37.4 °F 51% 29.95 in 15.0 mi SW 9.2 mph 19.6 mph N/A   Scattered Clouds
6:00 PM 51.8 °F - 37.4 °F 58% 29.97 in 15.0 mi WSW 9.2 mph 17.3 mph N/A   Partly Cloudy
7:00 PM 52 °F - 38 °F 47% 29.96 in 15 mi SW 11.5 mph - -   Clear
8:00 PM 53.6 °F - 39.2 °F 58% 29.98 in 15.0 mi WSW 10.4 mph 19.6 mph N/A   Partly Cloudy
9:00 PM 53.6 °F - 39.2 °F 58% 29.99 in 15.0 mi WSW 12.7 mph 19.6 mph N/A   Scattered Clouds
10:00 PM 53.6 °F - 39.2 °F 58% 29.99 in 15.0 mi WSW 11.5 mph 19.6 mph N/A   Mostly Cloudy
11:00 PM 51.8 °F - 39.2 °F 62% 30.00 in 15.0 mi WSW 12.7 mph 18.4 mph N/A   Mostly Cloudy